Regional Weather Roundup
Issued by NWS

Home | Current Version | Previous Version | Graphics & Text | Print | Product List | Glossary On
Versions: 1 2 3 4 5 6 7 8 9 10 11 12 13 14 15 16 17 18 19 20 21 22 23 24 25 26 27 28 29 30 31 32 33 34 35 36 37 38 39 40 41 42 43 44 45 46 47 48 49 50
163
ASUS43 KMKX 191300
RWRWI

WISCONSIN REGIONAL WEATHER ROUNDUP
NATIONAL WEATHER SERVICE MILWAUKEE/SULLIVAN WI
800 AM CDT THU OCT 19 2017

NOTE: "FAIR" INDICATES FEW OR NO CLOUDS BELOW 12,000 FEET WITH NO
SIGNIFICANT WEATHER AND/OR OBSTRUCTIONS TO VISIBILITY.

WIZ001-002-006>008-014>016-023>028-191400-
NORTHWEST WISCONSIN

CITY           SKY/WX    TMP DP  RH WIND       PRES   REMARKS
SUPERIOR ARPT  PTCLDY    42  29  59 W8        29.99R
ASHLAND        CLOUDY    45  26  47 SW12      30.00R
HAYWARD        CLOUDY    35  29  78 CALM      30.03R
SIREN          CLOUDY    38  31  74 CALM      30.04R
CUMBERLAND     CLOUDY    34  30  86 CALM      30.05R
RICE LAKE      CLOUDY    35  33  90 CALM      30.06R
CHETEK         CLOUDY    35  31  87 S3        30.05S
LADYSMITH      CLOUDY    37  30  75 CALM      30.06R
EAU CLAIRE     NOT AVBL
MENOMONIE      CLOUDY    38  33  82 NE5       30.06R WCI  34
NEW RICHMOND   CLOUDY    39  31  73 S3        30.05S
OSCEOLA        CLOUDY    34  32  92 CALM      30.07S
$$

WIZ003>005-009-010-017-018-191400-
NORTH CENTRAL WISCONSIN

CITY           SKY/WX    TMP DP  RH WIND       PRES   REMARKS
MANITOWISH WTR PTCLDY    41  26  54 SW6       29.99R
ARBOR VITAE    CLOUDY    42  27  55 W6        30.00R
WOODRUFF       CLOUDY    42  27  55 W6        30.00R
RHINELANDER    CLOUDY    38  27  64 W8        30.03R WCI  32
EAGLE RIVER    CLOUDY    41  24  52 W10       29.98R
LAND O LAKES   CLOUDY    44  23  44 W7        29.99R
PHILLIPS       CLOUDY    40  26  58 W5        30.02R
TOMAHAWK       CLOUDY    37  26  63 CALM      30.04R
MEDFORD        CLOUDY    39  28  64 SW3       30.05R
MERRILL        CLOUDY    38  28  69 W5        30.05R WCI  34
$$

WIZ029-030-035-036-043>047-191400-
CENTRAL WISCONSIN

CITY           SKY/WX    TMP DP  RH WIND       PRES   REMARKS
WAUSAU         CLOUDY    43  29  57 W6        30.05R
MOSINEE        NOT AVBL
MARSHFIELD     PTCLDY    44  28  53 W9        30.07R
STEVENS POINT  CLOUDY    45  27  48 W5        30.07R
WAUPACA        CLOUDY    46  29  53 W5        30.08R
WAUTOMA        CLOUDY    39  33  79 S3        30.11
WISC RAPIDS    PTCLDY    39  32  76 CALM      30.10R
CAMP DOUGLAS   NOT AVBL
$$

WIZ011>013-019>022-031-037>040-048>050-191400-
NORTHEAST WISCONSIN

CITY           SKY/WX    TMP DP  RH WIND       PRES   REMARKS
ANTIGO         PTCLDY    39  28  65 W8        30.04R WCI  33
SHAWANO        CLOUDY    46  29  50 SW3       30.05R
OCONTO         CLOUDY    41  29  60 SW5       30.04R
STURGEON BAY   CLOUDY    49  32  52 W9        30.05R
GREEN BAY      CLOUDY    47  32  56 W7        30.07R
MANITOWOC      CLOUDY    49  32  52 W8        30.08R
APPLETON       MOCLDY    46  27  46 W8        30.07R
CLINTONVILLE   NOT AVBL
OSHKOSH        CLOUDY    47  29  49 W7        30.09R
$$

WIZ032>034-041-042-053>061-191400-
SOUTHWEST WISCONSIN

CITY           SKY/WX    TMP DP  RH WIND       PRES   REMARKS
LA CROSSE      CLOUDY    46  38  73 S6        30.11R
SPARTA         CLOUDY    32  31  96 CALM      30.11R
VIROQUA        CLOUDY    43  31  62 SW3       30.10S
BOSCOBEL       PTCLDY    38  36  92 CALM      30.13R
PRAIRIE DU CHI CLOUDY    41  35  78 CALM      30.12R
PLATTEVILLE    CLOUDY    46  40  79 CALM      30.12S
$$

WIZ056-057-062-063-064-067-068-191400-
SOUTH CENTRAL WISCONSIN

CITY           SKY/WX    TMP DP  RH WIND       PRES   REMARKS
REEDSBURG      CLOUDY    40  35  81 CALM      30.11R
BARABOO/DELLS  CLOUDY    42  30  62 CALM      30.11R
LONE ROCK      NOT AVBL
MINERAL POINT  CLOUDY    46  32  57 CALM      30.12R
MADISON        CLOUDY    43  35  73 CALM      30.12R
MIDDLETON      CLOUDY    42  38  85 CALM      30.12R
WATERTOWN      CLOUDY    41  37  87 CALM      30.11R
MONROE         CLOUDY    52  27  37 CALM      30.12R
JANESVILLE     CLEAR     45  45 100 CALM      30.12R
$$

WIZ051-052-058>065-066-070>072-191400-
SOUTHEAST WISCONSIN

CITY           SKY/WX    TMP DP  RH WIND       PRES   REMARKS
MILWAUKEE      CLOUDY    54  29  38 W3        30.12R
WAUKESHA       CLEAR     46  32  57 W9        30.12R
MILWAUKEE/TIMM CLEAR     48  27  43 W3        30.11R
RACINE         MOCLDY    51  38  60 W6        30.13R
BURLINGTON     PTCLDY    43  38  82 SW5       30.12R
KENOSHA        PTCLDY    47  40  76 W3        30.12R
FOND DU LAC    CLOUDY    46  29  51 SW7       30.10R
SHEBOYGAN      CLOUDY    46  33  60 SW6       30.09R
WEST BEND      PTCLDY    48  27  43 NW5       30.09R
JUNEAU         CLOUDY    45  30  55 CALM      30.12R
$$

LSZ147-162-191400-
LAKE SUPERIOR

STATION/POSITION TIME  TEMP    WIND        PRES    WAVE
                       AIR SEA DIR/SP/G            HT/PER
                 (UTC) (F)     (DEG/KT/KT) (MB)    (FT/S)
W MID LAKE BUOY  1150   52 52              1011.1R   6/ 6
DEVILS ISLAND    1200   53     250/ 25/ 29 1013.2R
SAXON HARBOR     1140   50     210/  8/ 13 1013.9R
$$

LMZ867-665-643>646-191400-
LAKE MICHIGAN

STATION/POSITION TIME  TEMP    WIND        PRES    WAVE
                       AIR SEA DIR/SP/G            HT/PER
                 (UTC) (F)     (DEG/KT/KT) (MB)    (FT/S)
S GREEN BAY BUOY 1230   53 58  240/ 16/ 21 1016.6R
N MID LAKE BUOY  1150   56 58  260/ 17/ 23 1014.9R   5/ 7
NORTHPORT PIER   1240   54     250/  7/ 12 1015.6R
KEWAUNEE LAKESHO 1212   49     290/  4/  6 1016.3R
SHEBOYGAN LAKESH 1200   53     270/  9/ 11 1017.9R
PORT WASHINGTON  1240   53     260/  4/  6 1020.0R
MILWAUKEE LAKESH 1250   54     280/  5/  6   N/A
S MID LAKE BUOY  1150   59 61  330/ 17/ 19 1018.2R   3/ 5
KENOSHA   LAKESH 1200   54     280/  7/  9 1019.3
$$

TC  - TEMPERATURE IN CELSIUS
VSB - VISIBILITY IN STATUTE MILES
WCI - WIND CHILL INDEX
HX  - HEAT INDEX





USA.gov is the U.S. government's official web portal to all federal, state and local government web resources and services.